Alice Springs Airport (ASP/YBAS)




Flight Aircraft Arriving
CMB7616 B744
B77L
PHNL - Daniel K Inouye International Airport
United StatesHawaii Honolulu, Hawaii
CPX9090 B744
B77L
YSSY - Kingsford Smith International Airport
Australia Sydney, Australia
Flight Aircraft Departing
CMB7615 B744
B77L
PHNL - Daniel K Inouye International Airport
United StatesHawaii Honolulu, Hawaii
Airport Information
Location: Alice Springs, AU
Coordinates: -23.8067 / 133.902
Elevation:
Time Offset:
Local Time:
UTC Time:
Jet A Price: $/lbs

Current Weather
METAR: YBAS 310600Z AUTO 19010KT 9999 // SCT100 OVC125 32/10 Q1011
TAF: TAF AMD YBAS 310525Z 3105/0106 12010KT CAVOK FM311600 06008KT CAVOK FM010000 04014KT CAVOK FM010400 33010KT CAVOK INTER 3105/3109 4000 SHRA SCT040 PROB30 TEMPO 3105/3112 VRB20G35KT 3000 TSRA SCT030 SCT100CB PROB30 TEMPO 3117/3121 VRB20G35KT 3000 TSRA SCT030 SCT100CB PROB30 TEMPO 0104/0106 VRB20G35KT 3000 TSRA SCT030 SCT100CB

Recent Arrivals
Date Flight Type Depart
12/01/2019 CMB7615 B744 Daniel K Inouye International Airport (PHNL)
11/22/2019 CMB7615 B744 Daniel K Inouye International Airport (PHNL)
10/02/2019 CMB815 B744 Daniel K Inouye International Airport (PHNL)
Recent Departures
Date Flight Type Arrive
11/23/2019 CPX9090 B744 Kingsford Smith International Airport (YSSY)
10/03/2019 CPX990 B744 Kingsford Smith International Airport (YSSY)